Tracking 19792 objects as of 15-Jul-2019
HD Live streaming from Space Station
objects crossing your sky now

TITAN 34D TRANSTAGE DEB

Track TITAN 34D TRANSTAGE DEB now!


NORAD ID: 22818
Int'l Code: 1988-077F
Perigee: 397.9 km
Apogee: 32,923.6 km
Inclination: 26.8 °
Period: 579.8 minutes
Semi major axis: 23031 km
RCS: Unknown
Launch date: September 2, 1988
Source: United States (US)
Launch site: AIR FORCE EASTERN TEST RANGE (AFETR)

Note: This is SATELLITE DEBRIS
aabbcc
Your satellite tracking list
Your tracking list is empty




NASA's NSSDC Master Catalog

Two Line Element Set (TLE):
1 22818U 88077F   19196.10193363 -.00000124  00000-0 -33008-3 0  9999
2 22818  26.7569 137.4196 7061062 241.8387  31.5532  2.48377937   373
Source of the keplerian elements: AFSPC